Location: Most
(50.5133°N, 13.6207°E)
Time: 02:41:15
(UTC+01:00)

ZACube-1 - Pass Details

Date: 06 December 2021
Orbit: 582 x 665 km, 97.6° (Epoch: 24 January)

Event Time Altitude Azimuth Distance (km) Brightness Sun altitude
Rises 04:31:29 0° 14° (NNE) 3,003 ? -30.6°
Reaches altitude 10° 04:33:43 10° 16° (NNE) 2,093 ? -30.2°
Enters shadow 04:34:19 14° 16° (NNE) 1,848 ? -30.1°
